This is the latest recevied weather packets stored in our database for station/object KW4UJ. If no packets are shown the sender has not sent any weather packets the latest 10 day(s).
| Time | Temp. | Humidity | Pressure | Rain* | Wind** | Luminosity | Snow |
|---|---|---|---|---|---|---|---|
| 1777832276 | 15.56° C | 35% | 1016 hPa | 0 mm | - | 695 W/m² | - |
| 1777831973 | 15.56° C | 35% | 1015.9 hPa | 0 mm | - | 685 W/m² | - |
| 1777831670 | 15° C | 37% | 1015.9 hPa | 0 mm | - | 693 W/m² | - |
| 1777831368 | 15° C | 35% | 1016.2 hPa | 0 mm | - | 700 W/m² | - |
| 1777831064 | 14.44° C | 37% | 1015.9 hPa | 0 mm | - | 731 W/m² | - |
| 1777830762 | 15° C | 36% | 1016 hPa | 0 mm | - | 182 W/m² | - |
| 1777830458 | 15° C | 36% | 1016.4 hPa | 0 mm | - | 713 W/m² | - |
| 1777830156 | 15° C | 35% | 1016 hPa | 0 mm | - | 722 W/m² | - |
| 1777829856 | 15° C | 35% | 1016 hPa | 0 mm | - | 729 W/m² | - |
| 1777829552 | 14.44° C | 38% | 1016.1 hPa | 0 mm | - | 635 W/m² | - |
| 1777829249 | 14.44° C | 36% | 1016.3 hPa | 0 mm | - | 757 W/m² | - |
| 1777828947 | 14.44° C | 37% | 1016.3 hPa | 0 mm | - | 732 W/m² | - |
| 1777828643 | 14.44° C | 37% | 1016.3 hPa | 0 mm | - | 741 W/m² | - |
| 1777828340 | 14.44° C | 37% | 1016.3 hPa | 0 mm | - | 730 W/m² | - |
| 1777828037 | 13.89° C | 35% | 1016.3 hPa | 0 mm | - | 729 W/m² | - |
| 1777827734 | 13.89° C | 36% | 1016.3 hPa | 0 mm | - | 703 W/m² | - |
| 1777827431 | 13.89° C | 36% | 1016.3 hPa | 0 mm | - | 697 W/m² | - |
| 1777827128 | 13.89° C | 36% | 1016.3 hPa | 0 mm | - | 720 W/m² | - |
| 1777826824 | 13.89° C | 37% | 1016.4 hPa | 0 mm | - | 705 W/m² | - |
| 1777826522 | 13.89° C | 37% | 1016.6 hPa | 0 mm | - | 705 W/m² | - |
| 1777826218 | 13.33° C | 37% | 1016.6 hPa | 0 mm | - | 158 W/m² | - |
| 1777825916 | 13.33° C | 35% | 1016.9 hPa | 0 mm | - | 265 W/m² | - |
| 1777825612 | 13.89° C | 35% | 1016.9 hPa | 0 mm | - | 756 W/m² | - |
| 1777825310 | 12.78° C | 38% | 1016.9 hPa | 0 mm | - | 734 W/m² | - |
| 1777825007 | 12.78° C | 38% | 1017.3 hPa | 0 mm | - | 391 W/m² | - |
* Rain latest hour (hover to see other rain measurements)
** Current wind speed in m/s (hover to see current wind gust speed)